{"data":{"norad_id":49219,"epoch":"2026-09-20T04:55:20.049024Z","epoch_age_seconds":51113,"freshness":"FRESH","line1":"1 49219U 21083AK  26263.20509316 -.00000030  00000+0 -10544-3 0  9995","line2":"2 49219  87.9145 255.4769 0001733  87.3279 272.8052 13.20769955249355","mean_motion":13.20769955,"eccentricity":0.0001733,"inclination_deg":87.9145,"raan_deg":255.4769,"arg_perigee_deg":87.3279,"mean_anomaly_deg":272.8052,"bstar":-0.00010544,"rev_number":24935,"period_min":109.02731354152,"perigee_km":1180.4703287424,"apogee_km":1183.0905961349,"semimajor_km":7559.9174624386,"source":"CELESTRAK","updated_at":"2026-09-20T09:00:44.667727Z"}}